Wakefield, VA

4:09 PM EST on December 09, 2019 (GMT -0500)
Wakefield Municipal

Weather History for KAKQ - October, 2019

Change the Weather History Date:

Thursday, October 10, 2019

  Actual Average (KJGG) Record (KJGG)
Temperature  
Mean Temperature 66 °F -  
Max Temperature 75 °F 73 °F 87 °F (2010)
Min Temperature 55 °F 49 °F 36 °F (1978)
Cooling Degree Days 1    
Growing Degree Days 16 (Base 50)    
Moisture  
Dew Point 53 °F    
Average Humidity 72    
Maximum Humidity 84    
Minimum Humidity 48    
Precipitation  
Precipitation 0.00 in - - ()
Sea Level Pressure  
Sea Level Pressure 30.18 in    
Wind  
Wind Speed 4 mph (North)    
Max Wind Speed 8 mph    
Max Gust Speed -    
Visibility 10 miles    
Events      
Averages and records for this station are not official NWS values.
T = Trace of Precipitation, MM = Missing Value Source: NWS Daily Summary

Daily Weather History Graph

Daily Weather History Graph

Search for Another Location

Airport or City:

Astronomy

Oct. 10, 2019 Rise Set
Actual Time 7:10 AM EDT 6:38 PM EDT
Civil Twilight 6:44 AM EDT 7:04 PM EDT
Nautical Twilight 6:14 AM EDT 7:34 PM EDT
Astronomical Twilight 5:44 AM EDT 8:04 PM EDT
Moon 5:33 PM EDT (10/10) 3:59 AM EDT (10/10)
Length of Visible Light 12h 19m
Length of Day
11h 27m
Waxing Gibbous, 91% of the Moon is Illuminated
Oct 10
Waxing Gibbous
Oct 13
Full
Oct 21
Last Quarter
Oct 27
New
Nov 4
First Quarter

Hourly Weather History & Observations

Time (EDT) Temp. Dew Point Humidity Pressure Visibility Wind Dir Wind Speed Gust Speed Precip Events Conditions
12:54 AM 61.0 °F 54.0 °F 78% 30.20 in 10.0 mi Variable 4.6 mph - N/A   Overcast
1:54 AM 60.1 °F 54.0 °F 80% 30.20 in 10.0 mi Variable 3.5 mph - N/A   Overcast
2:54 AM 59.0 °F 53.1 °F 81% 30.20 in 10.0 mi Variable 5.8 mph - N/A   Overcast
3:40 AM 59.0 °F 53.1 °F 81% 30.19 in 10.0 mi Calm Calm - N/A   Overcast
3:54 AM 59.0 °F 53.1 °F 81% 30.19 in 10.0 mi North 3.5 mph - N/A   Overcast
4:10 AM 59.0 °F 53.1 °F 81% 30.19 in 10.0 mi North 6.9 mph - N/A   Overcast
4:52 AM 59.0 °F 51.8 °F 77% 30.19 in 10.0 mi North 5.8 mph - N/A   Overcast
4:54 AM 59.0 °F 52.0 °F 78% 30.20 in 10.0 mi Variable 4.6 mph - N/A   Overcast
5:40 AM 57.9 °F 52.0 °F 81% 30.19 in 10.0 mi Variable 4.6 mph - N/A   Overcast
5:54 AM 57.9 °F 52.0 °F 81% 30.20 in 10.0 mi Variable 4.6 mph - N/A   Overcast
6:04 AM 57.9 °F 52.0 °F 81% 30.20 in 10.0 mi Variable 3.5 mph - N/A   Overcast
6:54 AM 57.9 °F 52.0 °F 81% 30.21 in 10.0 mi Variable 3.5 mph - N/A   Overcast
7:54 AM 57.9 °F 52.0 °F 81% 30.22 in 10.0 mi North 6.9 mph - N/A   Overcast
8:54 AM 59.0 °F 52.0 °F 78% 30.23 in 10.0 mi Variable 5.8 mph - N/A   Overcast
9:54 AM 59.0 °F 52.0 °F 78% 30.23 in 10.0 mi North 4.6 mph - N/A   Overcast
10:09 AM 60.1 °F 52.0 °F 75% 30.23 in 10.0 mi North 5.8 mph - N/A   Overcast
10:54 AM 61.0 °F 52.0 °F 72% 30.24 in 10.0 mi Variable 4.6 mph - N/A   Overcast
11:54 AM 64.9 °F 53.1 °F 65% 30.22 in 10.0 mi NNW 6.9 mph - N/A   Mostly Cloudy
12:08 PM 66.0 °F 53.1 °F 63% 30.21 in 10.0 mi Variable 4.6 mph - N/A   Scattered Clouds
12:54 PM 69.1 °F 54.0 °F 58% 30.18 in 10.0 mi North 8.1 mph - N/A   Partly Cloudy
1:54 PM 71.1 °F 54.0 °F 55% 30.16 in 10.0 mi Variable 4.6 mph - N/A   Mostly Cloudy
2:54 PM 73.0 °F 54.0 °F 51% 30.14 in 10.0 mi ENE 8.1 mph - N/A   Scattered Clouds
3:54 PM 75.0 °F 54.0 °F 48% 30.13 in 10.0 mi Variable 5.8 mph - N/A   Mostly Cloudy
4:54 PM 73.9 °F 53.1 °F 48% 30.11 in 10.0 mi NE 5.8 mph - N/A   Clear
5:54 PM 73.0 °F 53.1 °F 49% 30.12 in 10.0 mi Variable 4.6 mph - N/A   Clear
6:54 PM 66.9 °F 54.0 °F 63% 30.13 in 10.0 mi Calm Calm - N/A   Clear
7:54 PM 61.0 °F 54.0 °F 78% 30.13 in 10.0 mi Calm Calm - N/A   Clear
8:54 PM 61.0 °F 53.1 °F 75% 30.12 in 10.0 mi Calm Calm - N/A   Clear
9:54 PM 59.0 °F 52.0 °F 78% 30.13 in 10.0 mi Calm Calm - N/A   Clear
10:54 PM 57.9 °F 52.0 °F 81% 30.14 in 10.0 mi Calm Calm - N/A   Clear
11:54 PM 55.9 °F 51.1 °F 84% 30.14 in 10.0 mi Calm Calm - N/A   Clear